Location: Unspecified
(42.3650°N, 71.1030°W)
Time: 23:30:26
(UTC+00:00)

Courier 1B Rocket - Pass Details

Date: 27 June 2024
Orbit: 920 x 1201 km, 28.2° (Epoch: 14 July)

Event Time Altitude Azimuth Distance (km) Brightness Sun altitude
Exits shadow 08:00:30 14° 228° (SW) 2,464 6.4 -10.7°
Maximum altitude 08:04:24 23° 186° (S) 2,008 6.2 -10.2°
Drops below altitude 10° 08:09:32 10° 137° (SE) 2,846 7.4 -9.5°
Sets 08:12:57 0° 124° (ESE) 3,854 8.3 -9.1°
